Location: Asheville, NC
(35.6000°N, 82.5500°W)
Time: 14:28:05

LilacSat-2 - Visible Passes

Search period start: 17 March 2018 00:00
Search period end: 27 March 2018 00:00
Orbit: 515 x 536 km, 97.5° (Epoch: 17 March)

Date Brightness Start Highest point End Pass type
(mag) Time Alt. Az. Time Alt. Az. Time Alt. Az.
18 Mar ? 07:01:52 10° NNE 07:05:27 35° E 07:09:00 10° SSE visible
19 Mar ? 06:50:25 10° NE 06:53:38 25° E 06:56:52 10° SSE visible
20 Mar ? 06:39:08 10° NE 06:41:50 18° E 06:44:31 10° SE visible
21 Mar ? 06:28:12 10° ENE 06:30:00 13° E 06:31:47 10° ESE visible
